{"data":{"norad_id":68953,"intl_designator":"2026-099C","name":"STARLINK-37337","alt_names":[],"object_type":"PAYLOAD","status":"ACTIVE","operator":null,"country":"US","launch_date":"2026-05-01","launch_site_code":"AFETR","launch_vehicle":null,"mission":null,"orbit_class":"UNKNOWN","rcs_meters":null,"size_class":null,"mass_kg":null,"dimensions":null,"purposes":["comms"],"wikipedia_slug":null,"has_3d_model":false,"image_url":null,"decayed_at":null,"tle_current":{"epoch":"2026-05-25T04:00:03.998880Z","epoch_age_seconds":57860,"freshness":"FRESH","line1":"1 68953U 26099C   26145.16671295  .00088054  00000+0  15773-2 0  9991","line2":"2 68953  53.1589 270.8768 0001412  51.0730 205.9867 15.49240170  4965","mean_motion":15.4924017,"eccentricity":0.0001412,"inclination_deg":53.1589,"raan_deg":270.8768,"arg_perigee_deg":51.073,"mean_anomaly_deg":205.9867,"bstar":0.0015773,"rev_number":496,"period_min":92.948790502895,"perigee_km":417.9878481159,"apogee_km":419.90734480594,"semimajor_km":6797.0845964609,"source":"CELESTRAK","updated_at":"2026-05-25T13:38:22.072117Z"}}}